| time (UTC) | temp C | wind direction | speed KPH | gust KPH | rain 1hr cm | rain 24hr cm | rain mn cm | humidity % | barometer mb |
| 20260507030048 | 7 | 281 | 0.0 | 3.2 | 0.00 | 0.76 | 0.76 | 1 | 1009.7 |
| 20260507024543 | 7 | 281 | 1.6 | 4.8 | 0.00 | 0.76 | 0.76 | 1 | 1010.3 |
| 20260507023038 | 7 | 281 | 0.0 | 3.2 | 0.00 | 0.76 | 0.76 | 1 | 1009.9 |
| 20260507021534 | 7 | 280 | 0.0 | 3.2 | 0.00 | 0.76 | 0.76 | 1 | 1010.6 |
| 20260507020040 | 8 | 280 | 0.0 | 3.2 | 0.00 | 0.76 | 0.76 | 1 | 1010.4 |
| 20260507014526 | 8 | 280 | 0.0 | 1.6 | 0.00 | 0.76 | 0.76 | 1 | 1010.4 |
| 20260507013039 | 8 | 280 | 0.0 | 4.8 | 0.00 | 0.76 | 0.76 | 1 | 1010.3 |
| 20260507011517 | 8 | 280 | 0.0 | 4.8 | 0.00 | 0.76 | 0.76 | 1 | 1010.3 |
| 20260507010013 | 8 | 280 | 0.0 | 4.8 | 0.00 | 0.76 | 0.76 | 1 | 1010.1 |
| 20260507004507 | 8 | 280 | 0.0 | 3.2 | 0.00 | 0.76 | 0.76 | 1 | 1010.0 |
| 20260507003004 | 8 | 280 | 0.0 | 6.4 | 0.00 | 0.76 | 0.76 | 1 | 1009.8 |
| 20260507001600 | 8 | 261 | 1.6 | 6.4 | 0.00 | 0.76 | 0.76 | 1 | 1009.6 |
| 20260507000055 | 8 | 261 | 1.6 | 6.4 | 0.00 | 0.76 | 0.76 | 1 | 1009.4 |
| 20260506234550 | 8 | 301 | 1.6 | 8.0 | 0.00 | 0.76 | 0.76 | 1 | 1009.1 |
| 20260506233100 | 8 | 248 | 1.6 | 8.0 | 0.00 | 0.76 | 0.76 | 1 | 1009.1 |
| 20260506231542 | 8 | 293 | 4.8 | 12.9 | 0.00 | 0.79 | 0.76 | 1 | 1009.2 |
| 20260506230036 | 8 | 256 | 4.8 | 11.3 | 0.00 | 0.79 | 0.76 | 1 | 1008.9 |
| 20260506224532 | 8 | 308 | 3.2 | 11.3 | 0.00 | 0.79 | 0.76 | 1 | 1009.0 |
| 20260506223027 | 8 | 309 | 4.8 | 19.3 | 0.00 | 0.79 | 0.76 | 1 | 1008.7 |
| 20260506221523 | 8 | 350 | 6.4 | 14.5 | 0.00 | 0.79 | 0.76 | 1 | 1008.5 |
| 20260506220026 | 8 | 342 | 8.0 | 16.1 | 0.00 | 0.79 | 0.76 | 1 | 1008.3 |
| 20260506214514 | 8 | 297 | 8.0 | 19.3 | 0.00 | 0.79 | 0.76 | 1 | 1008.4 |
| 20260506213009 | 9 | 333 | 6.4 | 16.1 | 0.00 | 0.79 | 0.76 | 1 | 1008.2 |
| 20260506211506 | 9 | 305 | 4.8 | 14.5 | 0.00 | 0.79 | 0.76 | 1 | 1007.8 |
| 20260506210100 | 9 | 313 | 4.8 | 16.1 | 0.00 | 0.79 | 0.76 | 1 | 1007.5 |
| 20260506204556 | 9 | 318 | 9.7 | 19.3 | 0.03 | 0.79 | 0.76 | 1 | 1007.2 |
| 20260506203052 | 9 | 315 | 6.4 | 16.1 | 0.03 | 0.79 | 0.76 | 1 | 1007.0 |
| 20260506201547 | 9 | 298 | 4.8 | 14.5 | 0.05 | 0.99 | 0.76 | 1 | 1006.5 |
| 20260506200046 | 10 | 284 | 6.4 | 14.5 | 0.08 | 0.99 | 0.76 | 1 | 1006.4 |
| 20260506194544 | 10 | 304 | 8.0 | 16.1 | 0.05 | 0.97 | 0.71 | 1 | 1006.3 |
| 20260506193033 | 10 | 288 | 6.4 | 17.7 | 0.05 | 0.97 | 0.71 | 1 | 1006.3 |
| 20260506191529 | 10 | 257 | 3.2 | 9.7 | 0.03 | 0.94 | 0.71 | 1 | 1005.9 |
| 20260506190024 | 10 | 296 | 3.2 | 11.3 | 0.00 | 0.91 | 0.69 | 1 | 1005.7 |
| 20260506184519 | 11 | 247 | 3.2 | 16.1 | 0.00 | 0.91 | 0.69 | 1 | 1005.6 |
| 20260506183015 | 11 | 277 | 4.8 | 16.1 | 0.03 | 0.91 | 0.69 | 1 | 1005.5 |
| 20260506181516 | 11 | 274 | 8.0 | 17.7 | 0.03 | 0.94 | 0.69 | 1 | 1005.1 |
| 20260506180014 | 12 | 267 | 6.4 | 12.9 | 0.03 | 0.94 | 0.69 | 1 | 1005.0 |
| 20260506174501 | 12 | 280 | 4.8 | 16.1 | 0.03 | 0.94 | 0.69 | 1 | 1004.5 |
| 20260506173111 | 14 | 315 | 9.7 | 17.7 | 0.00 | 0.91 | 0.66 | 1 | 1004.4 |
| 20260506171557 | 15 | 300 | 6.4 | 11.3 | 0.00 | 0.91 | 0.66 | 1 | 1004.0 |
| 20260506170059 | 15 | 277 | 6.4 | 14.5 | 0.00 | 0.91 | 0.66 | 1 | 1004.0 |
| 20260506164554 | 15 | 255 | 3.2 | 11.3 | 0.00 | 0.91 | 0.66 | 1 | 1004.1 |
| 20260506163042 | 15 | 245 | 3.2 | 16.1 | 0.03 | 0.91 | 0.66 | 1 | 1004.0 |
| 20260506161535 | 15 | 242 | 6.4 | 14.5 | 0.05 | 0.91 | 0.66 | 1 | 1003.9 |
| 20260506160030 | 15 | 251 | 3.2 | 16.1 | 0.08 | 0.91 | 0.66 | 1 | 1004.1 |
| 20260506154526 | 15 | 267 | 1.6 | 11.3 | 0.10 | 0.91 | 0.66 | 1 | 1004.2 |
| 20260506153021 | 15 | 274 | 3.2 | 16.1 | 0.08 | 0.89 | 0.64 | 1 | 1004.0 |
| 20260506151523 | 15 | 214 | 4.8 | 12.9 | 0.08 | 0.86 | 0.61 | 1 | 1004.4 |
| 20260506150018 | 15 | 242 | 1.6 | 11.3 | 0.05 | 0.84 | 0.58 | 1 | 1004.1 |
| 20260506144513 | 15 | 171 | 3.2 | 9.7 | 0.05 | 0.81 | 0.56 | 1 | 1004.1 |
| 20260506143010 | 14 | 26 | 0.0 | 4.8 | 0.08 | 0.81 | 0.56 | 1 | 1004.1 |
| 20260506141505 | 14 | 26 | 4.8 | 8.0 | 0.10 | 0.79 | 0.53 | 1 | 1004.1 |
| 20260506140001 | 13 | 348 | 1.6 | 4.8 | 0.18 | 0.79 | 0.53 | 1 | 1004.2 |
| 20260506134556 | 13 | 348 | 0.0 | 3.2 | 0.25 | 0.76 | 0.51 | 1 | 1004.3 |
| 20260506133103 | 13 | 221 | 1.6 | 4.8 | 0.30 | 0.71 | 0.48 | 1 | 1004.6 |
| 20260506131548 | 13 | 221 | 0.0 | 4.8 | 0.30 | 0.69 | 0.43 | 1 | 1005.0 |
| 20260506130044 | 13 | 221 | 1.6 | 8.0 | 0.25 | 0.61 | 0.36 | 1 | 1005.1 |
| 20260506124541 | 13 | 173 | 3.2 | 9.7 | 0.18 | 0.51 | 0.25 | 1 | 1005.2 |
| 20260506123041 | 13 | 218 | 1.6 | 8.0 | 0.10 | 0.43 | 0.18 | 1 | 1004.8 |
| 20260506121531 | 12 | 94 | 0.0 | 3.2 | 0.08 | 0.46 | 0.13 | 1 | 1004.6 |
| 20260506120036 | 12 | 90 | 1.6 | 4.8 | 0.05 | 0.43 | 0.10 | 1 | 1004.6 |
| 20260506114525 | 12 | 89 | 0.0 | 1.6 | 0.03 | 0.41 | 0.08 | 1 | 1005.1 |
| 20260506113019 | 12 | 89 | 0.0 | 1.6 | 0.03 | 0.41 | 0.08 | 1 | 1005.1 |
| 20260506111515 | 12 | 89 | 0.0 | 3.2 | 0.03 | 0.38 | 0.05 | 1 | 1005.1 |
| 20260506110010 | 12 | 89 | 0.0 | 1.6 | 0.03 | 0.38 | 0.05 | 1 | 1005.0 |
| 20260506104505 | 12 | 88 | 0.0 | 1.6 | 0.03 | 0.38 | 0.05 | 1 | 1005.1 |
| 20260506103004 | 12 | 88 | 0.0 | 1.6 | 0.05 | 0.38 | 0.05 | 1 | 1005.1 |
| 20260506101557 | 12 | 88 | 0.0 | 1.6 | 0.03 | 0.36 | 0.03 | 1 | 1004.8 |
| 20260506100054 | 12 | 88 | 0.0 | 3.2 | 0.03 | 0.36 | 0.03 | 1 | 1004.6 |
| 20260506094549 | 12 | 88 | 0.0 | 3.2 | 0.03 | 0.36 | 0.03 | 1 | 1004.7 |
| 20260506093048 | 12 | 88 | 0.0 | 3.2 | 0.00 | 0.33 | 0.00 | 1 | 1004.7 |
| 20260506091541 | 12 | 88 | 0.0 | 6.4 | 0.00 | 0.33 | 0.00 | 1 | 1004.9 |
| 20260506090035 | 12 | 88 | 3.2 | 4.8 | 0.00 | 0.33 | 0.00 | 1 | 1004.9 |
| 20260506084532 | 12 | 88 | 0.0 | 3.2 | 0.00 | 0.33 | 0.00 | 1 | 1005.3 |
| 20260506083026 | 12 | 88 | 0.0 | 3.2 | 0.00 | 0.33 | 0.00 | 1 | 1005.4 |
| 20260506081522 | 12 | 88 | 0.0 | 3.2 | 0.00 | 0.33 | 0.00 | 1 | 1005.2 |
| 20260506073009 | 12 | 88 | 0.0 | 3.2 | 0.00 | 0.33 | 0.00 | 1 | 1005.1 |
| 20260506071507 | 12 | 88 | 0.0 | 9.7 | 0.00 | 0.33 | 0.00 | 1 | 1005.1 |
| 20260506070117 | 12 | 101 | 0.0 | 4.8 | 0.00 | 0.33 | 0.00 | 1 | 1005.2 |
| 20260506061546 | 12 | 106 | 0.0 | 14.5 | 0.00 | 0.33 | 0.00 | 1 | 1005.8 |
| 20260506044524 | 13 | 73 | 1.6 | 8.0 | 0.00 | 0.33 | 0.00 | 1 | 1006.9 |
| 20260506043017 | 13 | 86 | 3.2 | 9.7 | 0.00 | 0.33 | 0.00 | 1 | 1006.8 |
| 20260506041510 | 13 | 109 | 1.6 | 9.7 | 0.00 | 0.33 | 0.33 | 1 | 1006.9 |
| 20260506040006 | 13 | 86 | 3.2 | 12.9 | 0.00 | 0.33 | 0.33 | 1 | 1007.1 |
| 20260506034502 | 13 | 90 | 4.8 | 9.7 | 0.00 | 0.33 | 0.33 | 1 | 1007.3 |
| 20260506033103 | 13 | 133 | 6.4 | 12.9 | 0.00 | 0.33 | 0.33 | 1 | 1007.6 |
| 20260506031601 | 14 | 87 | 3.2 | 9.7 | 0.00 | 0.33 | 0.33 | 1 | 1007.3 |